Voltar ao catálogo

CZ-6A DEB

AtivoSSO
NORAD 56592·DEBRIS·🇨🇳 China

Lançado Nov 11, 2022 de Taiyuan Satellite Launch Center

Loading…

Próximas Passagens (próximas 24 horas)

TLE

AtualizadoSource: Space-Track

Época: Sep 13, 2026, 07:33 UTC

1 56592U 22151ADQ 26256.31508643  .00001518  00000-0  71355-3 0  9998
2 56592  98.8173 268.5874 0034704  50.2136 310.2087 14.21208407186601

Acompanhe CZ-6A DEB em tempo real com AllMySat

Download on the App Store